Zurück zum Katalog

ATLAS 5 CENTAUR DEB

LostHEO
NORAD 47340·DEBRIS·🇺🇸 United States

Gestartet Oct 17, 2018 von Cape Canaveral Space Force Station

Loading…

Nächste Überflüge (nächste 24 Stunden)

TLE

VeraltetSource: Space-Track

Epoche: Feb 16, 2021, 01:50 UTC

1 47340U 18079EM  21047.07703248 -.00000091  00000-0  00000+0 0  9998
2 47340  10.8723 225.0814 4040852 347.0369   4.9222  1.90578658   837

Verfolge ATLAS 5 CENTAUR DEB in Echtzeit mit AllMySat

Download on the App Store